Weather History for KBAC - May, 2014

Change the Weather History Date:

Sunday, May 4, 2014

  Actual Average (KJMS) Record (KJMS)
Temperature  
Mean Temperature 35 °F 51 °F  
Max Temperature 44 °F 64 °F 94 °F (1926)
Min Temperature 26 °F 38 °F 22 °F (1907)
Degree Days  
Heating Degree Days 30 14  
Month to date heating degree days 59  
Since 1 July heating degree days 8653  
Cooling Degree Days 0 0  
Month to date cooling degree days 0  
Year to date cooling degree days 2  
Moisture  
Dew Point 28 °F    
Average Humidity 73    
Maximum Humidity 100    
Minimum Humidity 43    
Precipitation  
Precipitation 0.00 in 0.08 in 1.08 in (1950)
Month to date precipitation 0.29  
Year to date precipitation 3.18  
Sea Level Pressure  
Sea Level Pressure 30.07 in    
Wind  
Wind Speed 6 mph (ENE)    
Max Wind Speed 13 mph    
Max Gust Speed 17 mph    
Visibility 10 miles    
Events Rain    
T = Trace of Precipitation, MM = Missing Value Source: NWS Daily Summary

Daily Weather History Graph

Daily Weather History Graph

Search for Another Location

Airport or City:

Trip Planner

Search our weather history database for the weather conditions in past years. The results will help you decide how hot, cold, wet, or windy it might be!

Date:

Astronomy

May. 04, 2014 Rise Set
Actual Time 6:11 AM CDT 8:46 PM CDT
Civil Twilight 5:37 AM CDT 9:21 PM CDT
Nautical Twilight 4:54 AM CDT 10:04 PM CDT
Astronomical Twilight 4:04 AM CDT 10:54 PM CDT
Moon 10:36 AM CDT (5/4) 12:54 AM CDT (5/4)
Length of Visible Light 15h 43m
Length of Day
14h 34m
Waxing Crescent, 28% of the Moon is Illuminated
May 4
Waxing Crescent
May 6
First Quarter
May 14
Full
May 21
Last Quarter
May 28
New

Hourly Weather History & Observations

Time (CDT) Temp. Windchill Dew Point Humidity Pressure Visibility Wind Dir Wind Speed Gust Speed Precip Events Conditions
12:15 AM 30.2 °F 24.3 °F 26.6 °F 86% 30.06 in 10.0 mi NW 5.8 mph - N/A   Clear
12:35 AM 28.4 °F 22.2 °F 24.8 °F 86% 30.08 in 10.0 mi NW 5.8 mph - N/A   Clear
12:55 AM 28.4 °F 22.2 °F 24.8 °F 86% 30.09 in 10.0 mi NW 5.8 mph - N/A   Clear
1:15 AM 28.4 °F 21.2 °F 24.8 °F 86% 30.09 in 10.0 mi NW 6.9 mph - N/A   Clear
1:35 AM 28.4 °F 21.2 °F 26.6 °F 93% 30.09 in 10.0 mi NW 6.9 mph - N/A   Clear
1:55 AM 28.4 °F 21.2 °F 26.6 °F 93% 30.09 in 10.0 mi NNW 6.9 mph - N/A   Clear
2:15 AM 28.4 °F 22.2 °F 26.6 °F 93% 30.09 in 10.0 mi NW 5.8 mph - N/A   Clear
2:35 AM 28.4 °F 21.2 °F 26.6 °F 93% 30.09 in 10.0 mi NW 6.9 mph - N/A   Clear
2:55 AM 28.4 °F 22.2 °F 26.6 °F 93% 30.09 in 10.0 mi NNW 5.8 mph - N/A   Clear
3:15 AM 28.4 °F 23.3 °F 26.6 °F 93% 30.09 in 10.0 mi North 4.6 mph - N/A   Clear
3:35 AM 28.4 °F 23.3 °F 28.4 °F 100% 30.09 in 10.0 mi North 4.6 mph - N/A   Clear
3:55 AM 28.4 °F 23.3 °F 28.4 °F 100% 30.08 in 10.0 mi NNE 4.6 mph - N/A   Clear
4:15 AM 30.2 °F 26.7 °F 26.6 °F 86% 30.08 in 10.0 mi NNE 3.5 mph - N/A   Clear
4:35 AM 28.4 °F 23.3 °F 26.6 °F 93% 30.08 in 10.0 mi North 4.6 mph - N/A   Clear
4:55 AM 30.2 °F - 28.4 °F 93% 30.07 in 10.0 mi Calm Calm - N/A   Clear
5:15 AM 30.2 °F 25.4 °F 28.4 °F 93% 30.08 in 10.0 mi North 4.6 mph - N/A   Clear
5:35 AM 28.4 °F 24.6 °F 28.4 °F 100% 30.08 in 10.0 mi NNW 3.5 mph - N/A   Clear
5:55 AM 28.4 °F - 28.4 °F 100% 30.09 in 10.0 mi Calm Calm - N/A   Clear
6:15 AM 26.6 °F - 26.6 °F 100% 30.09 in 10.0 mi Calm Calm - N/A   Clear
6:35 AM 26.6 °F - 26.6 °F 100% 30.10 in 10.0 mi Calm Calm - N/A   Clear
6:55 AM 28.4 °F - 28.4 °F 100% 30.11 in 10.0 mi Calm Calm - N/A   Clear
7:15 AM 28.4 °F - 28.4 °F 100% 30.13 in 10.0 mi Calm Calm - N/A   Clear
7:35 AM 32.0 °F - 32.0 °F 100% 30.13 in 10.0 mi Calm Calm - N/A   Mostly Cloudy
7:55 AM 32.0 °F - 32.0 °F 100% 30.13 in 10.0 mi Calm Calm - N/A   Mostly Cloudy
8:15 AM 33.8 °F 29.6 °F 32.0 °F 93% 30.12 in 10.0 mi East 4.6 mph - N/A   Partly Cloudy
8:35 AM 37.4 °F 33.8 °F 32.0 °F 81% 30.12 in 10.0 mi East 4.6 mph - N/A   Mostly Cloudy
8:55 AM 39.2 °F 33.6 °F 28.4 °F 65% 30.13 in 10.0 mi ESE 8.1 mph - N/A   Scattered Clouds
9:15 AM 41.0 °F 35.2 °F 26.6 °F 57% 30.13 in 10.0 mi ENE 9.2 mph - N/A   Clear
9:35 AM 41.0 °F 36.4 °F 26.6 °F 57% 30.13 in 10.0 mi East 6.9 mph - N/A   Mostly Cloudy
9:55 AM 39.2 °F 34.2 °F 26.6 °F 61% 30.13 in 10.0 mi East 6.9 mph - N/A   Overcast
10:15 AM 41.0 °F 36.4 °F 26.6 °F 57% 30.13 in 10.0 mi East 6.9 mph - N/A   Mostly Cloudy
10:35 AM 42.8 °F 38.0 °F 26.6 °F 53% 30.12 in 10.0 mi East 8.1 mph - N/A   Scattered Clouds
10:55 AM 41.0 °F 35.8 °F 24.8 °F 53% 30.11 in 10.0 mi East 8.1 mph - N/A   Mostly Cloudy
11:15 AM 42.8 °F 36.6 °F 26.6 °F 53% 30.11 in 10.0 mi East 11.5 mph - N/A   Mostly Cloudy
11:35 AM 41.0 °F 35.2 °F 26.6 °F 57% 30.10 in 10.0 mi ENE 9.2 mph - N/A   Mostly Cloudy
11:55 AM 41.0 °F 35.2 °F 24.8 °F 53% 30.10 in 10.0 mi East 9.2 mph - N/A   Overcast
12:15 PM 42.8 °F 37.0 °F 24.8 °F 49% 30.10 in 10.0 mi East 10.4 mph - N/A   Overcast
12:35 PM 44.6 °F 39.2 °F 24.8 °F 46% 30.10 in 10.0 mi ESE 10.4 mph - N/A   Overcast
12:55 PM 44.6 °F 40.2 °F 24.8 °F 46% 30.10 in 10.0 mi ESE 8.1 mph - N/A   Overcast
1:15 PM 44.6 °F 39.2 °F 24.8 °F 46% 30.09 in 10.0 mi East 10.4 mph - N/A   Mostly Cloudy
1:35 PM 42.8 °F 37.0 °F 23.0 °F 46% 30.08 in 10.0 mi ESE 10.4 mph 17.3 mph N/A   Overcast
1:55 PM 44.6 °F 40.7 °F 23.0 °F 43% 30.07 in 10.0 mi ESE 6.9 mph - N/A   Overcast
2:15 PM 44.6 °F 40.2 °F 23.0 °F 43% 30.07 in 10.0 mi East 8.1 mph - N/A   Overcast
2:35 PM 44.6 °F 39.7 °F 24.8 °F 46% 30.07 in 10.0 mi ESE 9.2 mph - N/A   Overcast
2:55 PM 42.8 °F 38.0 °F 24.8 °F 49% 30.06 in 10.0 mi ESE 8.1 mph - N/A   Overcast
3:15 PM 44.6 °F 38.4 °F 24.8 °F 46% 30.05 in 10.0 mi East 12.7 mph - N/A   Overcast
3:35 PM 44.6 °F 40.2 °F 26.6 °F 49% 30.05 in 10.0 mi ESE 8.1 mph - N/A   Overcast
4:15 PM 44.6 °F 39.7 °F 26.6 °F 49% 30.02 in 10.0 mi ESE 9.2 mph - N/A   Overcast
4:35 PM 44.6 °F 39.7 °F 26.6 °F 49% 30.02 in 10.0 mi ESE 9.2 mph - N/A   Overcast
4:55 PM 44.6 °F 40.2 °F 26.6 °F 49% 30.02 in 10.0 mi ESE 8.1 mph - N/A   Overcast
5:15 PM 44.6 °F 39.2 °F 28.4 °F 53% 30.01 in 10.0 mi East 10.4 mph - N/A   Overcast
5:35 PM 44.6 °F 38.4 °F 28.4 °F 53% 30.00 in 10.0 mi East 12.7 mph - N/A   Overcast
5:55 PM 44.6 °F 40.2 °F 28.4 °F 53% 30.00 in 10.0 mi ESE 8.1 mph - N/A   Overcast
6:15 PM 44.6 °F 39.7 °F 28.4 °F 53% 30.01 in 10.0 mi East 9.2 mph - N/A   Overcast
6:35 PM 42.8 °F 36.6 °F 28.4 °F 57% 30.00 in 10.0 mi East 11.5 mph - N/A   Overcast
6:55 PM 42.8 °F 37.5 °F 28.4 °F 57% 30.00 in 10.0 mi East 9.2 mph - N/A   Overcast
7:15 PM 42.8 °F 38.0 °F 30.2 °F 61% 29.99 in 10.0 mi East 8.1 mph - N/A   Overcast
7:35 PM 42.8 °F 38.0 °F 30.2 °F 61% 30.00 in 10.0 mi East 8.1 mph - N/A   Overcast
7:55 PM 42.8 °F 37.0 °F 30.2 °F 61% 30.00 in 10.0 mi ENE 10.4 mph - N/A   Overcast
8:15 PM 42.8 °F 39.3 °F 32.0 °F 66% 30.02 in 10.0 mi ENE 5.8 mph - N/A   Overcast
8:35 PM 41.0 °F 36.4 °F 32.0 °F 70% 30.02 in 10.0 mi ENE 6.9 mph - N/A   Overcast
8:55 PM 41.0 °F 37.1 °F 32.0 °F 70% 30.04 in 10.0 mi NNE 5.8 mph - N/A   Overcast
9:15 PM 41.0 °F 36.4 °F 32.0 °F 70% 30.04 in 10.0 mi NE 6.9 mph - N/A   Overcast
9:35 PM 41.0 °F 35.8 °F 32.0 °F 70% 30.03 in 10.0 mi East 8.1 mph - N/A Rain Light Rain
9:55 PM 39.2 °F 32.0 °F 33.8 °F 81% 30.05 in 10.0 mi NE 11.5 mph 16.1 mph N/A Rain Light Rain
10:15 PM 39.2 °F 32.5 °F 35.6 °F 87% 30.06 in 10.0 mi NE 10.4 mph - N/A Rain Light Rain
10:35 PM 39.2 °F 33.0 °F 35.6 °F 87% 30.06 in 10.0 mi NE 9.2 mph - N/A Rain Light Rain
10:55 PM 39.2 °F 33.0 °F 37.4 °F 93% 30.05 in 10.0 mi ENE 9.2 mph - N/A   Overcast
11:15 PM 39.2 °F 33.0 °F 37.4 °F 93% 30.05 in 10.0 mi NE 9.2 mph - N/A   Overcast
11:35 PM 37.4 °F 29.3 °F 37.4 °F 100% 30.05 in 10.0 mi NE 12.7 mph - N/A   Overcast
11:55 PM 37.4 °F 29.8 °F 37.4 °F 100% 30.03 in 10.0 mi ENE 11.5 mph - N/A   Overcast